Reflectivity
12 13 -20 -20 -18 -19 14 1 18 28 29 24 24 18 20 31 36 37 36 27 19 28 35 27 24 26 22 23 29 27 22 23 5 -18 -20 -20 -20 -20 -20 -20 -20 -20 -20 -20 -20 -20 -20 -20 -20 -20 -20 -20 -20 -20
16 -4 -19 -18 -12 -20 -20 -18 -7 13 13 2 12 18 33 35 33 32 33 30 28 34 35 31 20 28 30 32 26 28 25 -7 -20 -20 -20 -20 -20 -20 -20 -20 -20 -20 -20 -20 -20 -20 -20 -20 -20 -20 -20 -20 -20 -20
18 13 -16 -20 -20 -20 -20 -17 4 8 8 3 30 29 32 33 31 32 28 30 30 38 32 31 29 32 34 25 17 21 -2 -19 -7 -20 -20 -20 -20 -20 -20 -20 -20 -20 -20 -20 -20 -20 -20 -20 -20 -20 -20 -20 -20 -20
13 -20 -20 -20 -20 -20 -15 -11 -0 -1 19 27 34 39 38 34 34 35 34 34 28 30 23 27 34 34 23 16 10 1 11 -2 -20 -20 -20 -20 -20 -20 -20 -20 -20 -20 -20 -20 -20 -20 -20 -20 -20 -20 -20 -20 -20 -20
-19 -20 -20 -20 -20 -20 -17 -3 0 0 24 33 38 28 31 30 31 33 33 35 34 25 26 25 23 21 12 9 11 11 -1 -19 -20 -20 -20 -20 -20 -20 -20 -20 -20 -20 -20 -20 -20 -20 -20 -20 -20 -20 -20 -20 -20 -20
-20 -20 -20 -20 -20 -20 -10 18 25 27 21 25 31 33 33 36 35 34 35 37 30 35 25 18 15 16 13 5 -6 -20 -20 -20 -20 -20 -20 -20 -20 -20 -20 -20 -20 -20 -20 -20 -20 -20 -20 -20 -20 -20 -20 -20 -20 -20
-20 -20 -20 -20 -20 -15 7 26 28 28 35 37 37 35 33 32 31 31 27 27 28 28 19 11 8 2 6 3 -18 -20 -20 -20 -20 -20 -20 -20 -20 -20 -20 -20 -20 -20 -20 -20 -20 -20 -20 -20 -20 -20 -20 -20 -20 -20
-20 -20 -3 15 22 25 30 36 33 35 40 38 29 33 30 32 33 23 18 16 9 9 -2 -19 -15 -17 -20 -20 -20 -20 -20 -20 -20 -20 -20 -20 -20 -20 -20 -20 -20 -20 -20 -20 -20 -20 -20 -20 -20 -20 -20 -20 -20 -20
15 23 31 24 30 35 38 31 35 34 31 30 15 31 20 10 -2 -15 -9 -8 -8 -13 -20 -20 -20 -20 -20 -20 -20 -20 -20 -20 -20 -20 -20 -20 -20 -20 -20 -20 -20 -20 -20 -20 -20 -20 -20 -20 -20 -20 -16 -20 -20 -20
31 25 23 23 23 34 32 30 32 21 22 31 21 -3 5 10 -3 -7 -12 -19 -20 -20 -20 -20 -20 -20 -20 -20 -20 -20 -20 -20 -20 -20 -20 -20 -20 -20 -20 -20 -20 -20 -20 -20 -20 -20 -20 -20 -20 -20 -4 -3 4 -14
33 27 28 30 28 25 17 23 20 28 24 6 8 4 6 10 -18 -20 -17 -16 -20 -20 -20 -20 -20 -20 -20 -20 -20 -20 -20 -20 -20 -20 -20 -20 -20 -20 -20 -20 -20 -20 -20 -20 -20 -20 -20 -20 -20 -19 -18 -20 -20 -20
35 33 34 31 35 33 31 33 13 10 3 10 14 -6 -16 -20 -20 -20 -20 -20 -20 -20 -20 -20 -20 -20 -20 -20 -20 -20 -20 -20 -20 -20 -20 -20 -20 -20 -20 -20 -20 -20 -20 -20 -20 -20 -20 -20 -5 -2 3 2 8 10
36 31 30 31 31 27 26 17 24 28 13 -20 -20 -20 -20 -20 -20 -20 -20 -20 -20 -20 -20 -20 -20 -20 -20 -20 -20 -20 -20 -20 -20 -20 -19 -20 -20 -20 -20 -20 -20 -20 -20 2 20 7 -20 -20 -19 -12 -0 6 -18 -18
15 12 7 6 5 4 -6 -19 1 -5 -20 -20 -20 -20 -20 -20 -20 -20 -20 -20 -20 -20 -20 -20 -20 -20 -20 -20 -20 -20 -20 -20 -20 -20 -20 -20 -20 -20 -20 -20 -20 -18 -11 19 9 12 -19 -20 -20 -20 -20 -20 -20 -20
-20 -20 -20 -20 -20 -19 -20 -20 -20 -20 -20 -20 -20 -20 -20 -20 -20 -20 -20 -20 -20 -20 -20 -20 -20 -20 -20 -20 -20 -20 -20 -20 -20 -20 -20 -20 -20 -20 -20 -14 -11 -4 -0 6 -4 -1 -17 -20 -20 -20 -20 -20 -20 -20
-20 -20 -20 -20 -20 -20 -20 -20 -20 -20 -20 -20 -20 -20 -20 -20 -20 -20 -20 -20 -20 -20 -20 -20 -20 -20 -20 -20 -20 -20 -20 -20 -20 -20 -20 -20 -20 -20 -20 -18 -17 -13 -20 -3 -2 -17 -6 -20 -20 -8 -20 -20 -20 -19
-20 -20 -20 -20 -20 -20 -20 -20 -20 -20 -20 -20 -20 -20 -20 -20 -20 -20 -20 -20 -20 -20 -20 -20 -20 -20 -20 -20 -20 -20 -20 -20 -20 -20 -20 -20 -20 -20 -20 -19 -20 -20 -20 -20 -20 -20 -20 -20 -20 -20 -20 4 -20 4
-20 -20 -20 -20 -20 -20 -20 -20 -20 -20 -20 -20 -20 -20 -20 -20 -20 -20 -20 -20 -20 -20 -20 -20 -20 -20 -20 -20 -20 -20 -20 -20 -20 -20 -20 -19 -20 -20 -20 -20 -20 -20 -20 -20 -20 -16 -20 -20 -6 -9 2 -4 2 -12
-20 -20 -20 -20 -20 -20 -20 -20 -20 -20 -20 -20 -20 -20 -20 -20 -20 -20 -20 -20 -20 -20 -20 -20 -20 -20 -20 -20 -20 -20 -20 -20 -20 -20 -20 -20 -13 -20 -20 -20 -20 -20 -20 -20 -20 -20 -20 -20 -11 -14 -3 -20 -20 -20
-20 -20 -20 -20 -20 -20 -20 -20 -20 -20 -20 -20 -20 -20 -20 -20 -20 -20 -20 -20 -20 -20 -20 -20 -20 -20 -20 -20 -20 -20 -20 -20 -20 -20 -20 -20 -20 -20 -20 -20 -20 -20 -20 -20 -20 -20 -20 -20 -20 -11 -15 -20 -20 -20
-20 -20 -20 -20 -20 -20 -20 -20 -20 -20 -20 -20 -20 -20 -20 -20 -20 -20 -20 -20 -20 -20 -20 -20 -20 -20 -20 -20 -20 -20 -20 -20 -20 -20 -20 -20 -20 -20 -20 -20 -20 -20 -20 -20 -20 -20 -20 -20 -20 -20 -20 -20 -20 -20
-20 -20 -20 -20 -20 -20 -20 -20 -20 -20 -20 -20 -20 -20 -20 -20 -20 -20 -20 -20 -20 -20 -20 -20 -20 -20 -20 -20 -20 -20 -20 -20 -20 -20 -20 -20 -20 -20 -20 -20 -20 -20 -20 -20 -20 -20 -20 -20 -20 -20 -20 -20 -20 -20
-20 -20 -20 -20 -20 -20 -20 -20 -20 -20 -20 -20 -20 -20 -20 -20 -20 -20 -20 -20 -20 -20 -20 -20 -20 -20 -20 -20 -20 -20 -20 -20 -20 -20 -20 -20 -20 -20 -20 -20 -20 -20 -20 -20 -20 -20 -20 -20 -20 -20 -20 -20 -20 -20
-20 -20 -20 -20 -20 -20 -20 -20 -20 -20 -20 -20 -20 -20 -20 -20 -20 -20 -20 -20 -20 -20 -20 -20 -20 -20 -20 -20 -20 -20 -20 -20 -20 -20 -20 -20 -20 -20 -20 -20 -20 -20 -20 -20 -20 -20 -20 -20 -20 -20 -20 -20 -20 -20
-20 -20 -20 -20 -20 -20 -20 -20 -20 -20 -20 -20 -20 -20 -20 -20 -20 -20 -20 -20 -20 -20 -20 -20 -20 -20 -20 -20 -20 -20 -20 -20 -20 -20 -20 -20 -20 -20 -20 -20 -20 -20 -20 -20 -20 -20 -20 -20 -20 -20 -20 -20 -20 -20
-20 -20 -20 -20 -20 -20 -20 -20 -20 -20 -20 -20 -20 -20 -20 -20 -20 -20 -20 -20 -20 -20 -20 -20 -20 -20 -20 -20 -20 -20 -20 -20 -20 -20 -20 -20 -20 -20 -20 -20 -20 -20 -20 -20 -20 -20 -20 -20 -20 -20 -20 -20 -20 -20
-20 -20 -20 -20 -20 -20 -20 -20 -20 -20 -20 -20 -20 -20 -20 -20 -20 -20 -20 -20 -20 -20 -20 -20 -20 -20 -20 -20 -20 -20 -20 -20 -20 -20 -20 -20 -20 -20 -20 -20 -20 -20 -20 -20 -20 -20 -20 -20 -20 -20 -20 -20 -20 -20
-20 -20 -20 -20 -20 -20 -20 -20 -20 -20 -20 -20 -20 -20 -20 -20 -20 -20 -20 -20 -20 -20 -20 -20 -20 -20 -20 -20 -20 -20 -20 -20 -20 -20 -20 -20 -20 -20 -20 -20 -20 -20 -20 -20 -20 -20 -20 -20 -20 -20 -20 -20 -20 -20
-20 -20 -20 -20 -20 -20 -20 -20 -20 -20 -20 -20 -20 -20 -20 -20 -20 -20 -20 -20 -20 -20 -20 -20 -20 -20 -20 -20 -20 -20 -20 -20 -20 -20 -20 -20 -20 -20 -20 -20 -20 -20 -20 -20 -20 -20 -20 -20 -20 -20 -20 -20 -20 -20
-20 -20 -20 -20 -20 -20 -20 -20 -20 -20 -20 -20 -20 -20 -20 -20 -20 -20 -20 -20 -20 -20 -20 -20 -20 -20 -20 -20 -20 -20 -20 -20 -20 -20 -20 -20 -20 -20 -20 -20 -20 -20 -20 -20 -20 -20 -20 -20 -20 -20 -20 -20 -20 -20
-20 -20 -20 -20 -20 -20 -20 -20 -20 -20 -20 -20 -20 -20 -20 -20 -20 -20 -20 -20 -20 -20 -20 -20 -20 -20 -20 -20 -20 -20 -20 -20 -20 -20 -20 -20 -20 -20 -20 -20 -20 -20 -20 -20 -20 -20 -20 -20 -20 -20 -20 -20 -20 -20
-20 -20 -20 -20 -20 -20 -20 -20 -20 -20 -20 -20 -20 -20 -20 -20 -20 -20 -20 -20 -20 -20 -20 -20 -20 -20 -20 -20 -20 -20 -20 -20 -20 -20 -20 -20 -20 -20 -20 -20 -20 -20 -20 -20 -20 -20 -20 -20 -20 -20 -20 -20 -20 -20
-20 -20 -20 -20 -20 -20 -20 -20 -20 -20 -20 -20 -20 -20 -20 -20 -20 -20 -20 -20 -20 -19 -20 -20 -20 -20 -20 -20 -20 -20 -20 -20 -20 -20 -20 -20 -20 -20 -20 -20 -20 -20 -20 -20 -20 -20 -20 -20 -20 -20 -20 -20 -20 -20
Wind_Speed
23 22 18 18 17 16 17 16 15 17 19 21 21 24 28 29 28 7 4 5 5 5 4 7 5 5 5 4 7 7 5 1 2 3 3 4 3 4 2 3 5 8 8 5 4 4 10 11 8 6 3 4 9 11
21 22 21 17 16 15 14 14 14 13 15 15 18 22 23 26 23 12 5 4 8 10 4 3 5 6 6 5 9 3 2 5 6 5 2 3 3 2 3 2 1 5 5 5 9 6 3 14 4 8 3 6 9 7
19 19 17 16 15 15 15 13 11 13 14 14 15 19 21 24 24 13 7 6 7 5 5 6 6 7 4 3 4 7 1 5 4 2 4 3 3 3 5 5 4 4 5 4 1 6 12 10 12 10 7 9 9 9
17 17 16 15 15 17 15 15 15 16 17 17 19 25 28 29 26 17 7 1 5 8 6 4 6 3 7 3 3 2 9 6 6 2 3 2 3 3 3 0 5 4 7 6 7 10 10 14 13 12 10 6 8 8
15 15 15 16 15 15 13 13 15 19 23 29 33 34 34 35 35 20 8 4 2 8 6 5 2 5 9 7 13 11 10 7 2 3 2 2 2 3 2 1 5 7 7 6 7 6 4 5 5 3 8 10 8 6
15 15 16 15 13 12 15 20 27 30 33 34 35 38 37 32 15 8 7 5 3 6 8 5 1 5 8 11 14 10 6 5 3 2 2 2 1 2 3 4 5 7 6 8 6 4 10 10 7 8 11 10 7 6
17 17 16 14 15 21 26 31 34 34 35 37 38 32 24 19 8 7 5 9 6 3 8 6 3 2 2 4 4 5 5 3 3 2 1 2 1 3 2 4 3 5 7 9 11 8 9 13 8 4 9 8 5 5
16 17 17 20 26 32 35 37 36 39 38 36 31 31 30 29 17 8 6 7 4 7 5 6 4 2 2 3 3 2 2 2 4 2 1 1 2 0 5 7 6 5 6 10 9 8 14 8 7 6 5 4 5 8
25 26 29 31 34 36 39 39 38 38 37 35 31 26 9 9 5 2 2 6 1 6 6 4 7 5 3 2 2 2 2 2 2 1 1 2 2 7 6 4 7 8 8 11 11 4 2 3 5 6 6 7 8 11
32 32 34 34 37 39 40 40 34 35 31 24 8 8 5 1 1 2 4 5 7 5 4 4 2 5 4 2 2 2 2 2 2 1 3 3 4 7 2 3 5 7 6 5 4 1 2 3 5 7 9 9 10 12
36 36 36 36 35 34 34 29 23 21 15 6 5 4 2 1 3 5 5 5 1 4 3 2 3 6 1 3 3 0 3 2 2 2 3 2 4 2 3 2 3 4 2 4 2 3 5 7 9 10 11 11 10 10
35 34 34 32 30 25 19 15 16 10 2 6 11 6 3 5 5 8 3 1 3 4 2 4 3 4 3 2 4 2 3 2 2 4 2 3 3 3 3 3 3 5 5 7 7 6 5 5 6 7 7 8 6 6
31 29 27 26 25 23 20 15 18 24 6 5 8 7 4 4 8 5 5 2 4 3 4 4 4 3 3 4 4 2 2 3 4 2 3 3 2 2 3 4 5 7 6 6 3 3 4 5 5 6 8 6 8 7
29 28 26 25 22 20 18 14 8 7 6 6 6 7 4 2 3 2 4 5 3 5 8 5 4 4 2 3 2 3 2 3 2 3 3 1 3 6 5 5 7 11 10 9 7 4 6 7 7 7 5 5 5 6
28 26 23 19 19 17 15 13 10 4 5 6 6 6 4 3 5 3 3 6 4 4 6 5 5 3 2 4 0 2 3 3 4 3 2 2 3 3 4 6 7 8 8 7 8 8 6 6 7 7 7 7 8 5
15 17 11 16 14 13 10 7 4 3 5 6 8 5 3 6 3 4 8 6 3 4 4 3 3 4 3 4 3 6 5 5 2 2 0 3 5 5 6 6 6 7 8 7 8 8 8 7 7 8 7 7 6 8
14 5 7 8 10 11 14 6 5 9 5 5 2 3 2 7 5 3 2 3 1 3 2 3 4 3 4 3 4 3 4 3 2 1 1 4 5 5 5 6 6 7 6 7 8 7 6 8 8 9 10 9 9 8
6 4 13 11 7 6 5 6 5 6 8 5 4 1 2 2 4 4 3 2 3 2 3 3 4 4 5 6 3 2 2 1 1 1 2 3 4 4 4 5 4 5 6 7 7 7 7 8 9 8 9 10 9 8
7 7 14 12 7 5 5 5 4 6 4 2 3 3 4 4 3 4 4 2 3 2 4 2 3 3 3 2 2 2 2 2 2 2 2 4 4 4 4 5 5 6 7 7 7 6 6 7 6 6 6 8 8 8
11 18 13 13 6 5 6 4 2 5 3 2 2 3 3 3 3 3 3 2 2 1 1 3 3 3 3 3 3 2 3 3 3 2 3 4 4 5 6 5 4 6 5 6 5 7 6 6 7 8 8 9 9 10
8 8 11 7 5 6 5 3 5 3 3 4 3 3 3 2 2 2 2 1 2 2 2 3 2 2 2 2 3 4 5 4 3 3 2 2 3 4 4 4 4 4 4 4 5 6 7 7 7 8 8 9 8 9
3 9 4 6 6 5 5 4 3 3 3 4 4 2 4 3 3 4 3 2 3 3 3 3 2 4 4 4 4 5 7 9 8 5 5 5 2 2 3 3 3 4 3 4 5 6 6 7 8 8 9 9 9 9
5 4 4 4 6 6 0 1 3 2 5 4 3 4 2 2 2 3 2 2 2 1 2 2 3 4 8 6 8 7 6 7 5 5 5 4 4 3 3 3 3 2 3 4 5 5 6 7 7 7 8 9 9 9
5 5 5 4 5 2 1 3 2 3 3 2 2 3 2 2 3 1 2 2 1 3 2 6 7 6 6 6 4 4 4 5 7 5 4 4 3 2 2 2 1 2 3 4 4 5 6 6 7 8 8 9 10 10
7 7 5 5 3 5 4 3 3 3 3 1 3 1 2 2 2 2 3 3 4 4 3 5 4 4 4 4 4 4 5 6 6 5 2 3 4 3 1 1 2 2 2 4 5 6 6 6 7 8 9 9 12 13
7 4 4 2 0 4 3 3 2 4 3 2 1 2 1 3 2 5 4 3 4 5 5 7 6 4 3 3 6 4 4 4 5 4 3 3 3 2 1 1 2 1 2 3 4 6 8 7 8 10 10 11 11 11
4 2 2 1 1 3 4 3 2 4 3 4 3 3 3 2 5 4 1 2 2 3 4 5 5 4 6 5 4 4 4 4 3 3 5 4 3 3 2 1 2 2 3 4 3 4 6 7 8 9 9 8 8 8
2 1 4 2 3 2 4 2 3 4 3 2 4 3 7 7 4 3 2 1 3 5 6 5 4 5 6 6 6 7 6 6 7 7 6 4 2 1 1 1 1 2 2 2 3 4 4 4 6 6 6 7 7 7
2 2 3 3 3 2 2 3 3 2 2 3 4 3 3 3 2 2 2 3 4 6 7 6 4 6 7 6 5 3 7 7 7 4 3 2 2 2 3 1 1 1 2 4 5 5 5 3 4 4 5 4 5 5
2 1 4 2 3 2 3 2 1 1 1 1 2 1 1 1 0 1 4 5 5 5 5 6 7 7 7 7 5 3 1 2 2 3 3 3 4 2 3 2 1 1 1 2 3 4 5 4 4 4 4 4 5 5
1 2 3 2 2 3 2 2 1 1 2 2 2 2 2 2 1 0 2 2 4 6 7 6 4 4 7 7 6 7 5 4 5 4 3 3 3 3 3 2 1 1 0 1 2 2 3 2 3 4 6 7 7 6
3 2 4 1 2 1 2 2 2 1 2 1 1 1 1 0 2 1 1 3 4 5 4 7 7 6 5 4 3 3 3 6 7 6 8 4 4 3 3 2 2 1 1 1 2 2 2 3 3 4 4 6 6 6
1 1 1 2 4 3 3 2 4 4 3 2 2 2 1 1 3 1 2 2 1 4 5 5 4 5 8 8 7 5 3 4 7 8 8 6 6 5 3 2 2 2 2 2 2 1 2 2 2 3 3 4 4 5
Wind_Direction
165 158 161 185 186 196 189 192 199 191 182 178 182 184 190 195 193 103 90 15 124 102 46 15 15 140 115 130 133 148 116 137 125 119 163 178 173 191 176 138 177 174 176 190 149 207 257 158 131 206 226 291 280 291
160 159 173 178 181 188 201 195 196 193 183 168 182 185 189 191 167 113 98 81 61 76 91 9 52 7 347 117 125 147 33 148 158 112 152 132 140 153 151 223 246 212 204 183 207 223 244 191 209 208 229 258 283 270
153 156 165 171 180 184 191 194 203 210 187 170 185 185 179 159 137 108 112 130 83 112 76 43 7 335 344 27 117 119 213 146 119 81 143 125 145 153 168 218 205 227 180 233 245 240 237 234 247 263 261 252 269 269
155 164 173 179 188 191 184 197 206 200 175 172 163 136 119 116 110 108 106 46 83 103 90 28 294 331 331 36 62 57 119 85 100 92 95 123 145 186 181 270 217 205 159 217 259 272 269 261 259 264 269 246 268 288
172 174 176 190 196 197 190 212 200 156 138 130 127 119 113 107 101 91 84 32 350 103 118 137 217 14 35 72 72 72 94 93 87 88 88 123 113 144 135 197 228 188 197 198 235 232 238 267 227 229 243 246 252 263
185 178 189 193 198 203 205 169 140 131 128 127 118 112 112 112 113 84 68 339 309 92 115 102 297 30 31 56 60 56 54 62 66 92 93 95 72 148 168 234 252 217 228 232 252 254 234 258 264 259 246 252 239 244
179 181 183 188 186 173 149 135 129 129 124 118 113 109 99 85 68 74 157 157 158 100 95 103 86 21 17 45 44 42 37 66 76 95 77 125 141 133 190 237 254 229 246 261 251 255 266 245 243 258 229 244 243 260
159 166 162 150 144 134 128 125 124 117 119 110 112 110 107 102 98 76 28 107 134 91 78 106 99 124 19 69 80 356 75 40 31 95 114 126 131 161 253 247 269 283 284 282 267 237 255 278 263 238 234 220 246 265
118 123 127 125 125 124 121 120 119 122 121 124 119 114 81 41 60 134 163 96 81 98 103 96 134 149 117 89 103 77 51 84 1 93 101 163 179 228 246 280 306 304 270 273 297 303 349 318 327 318 285 265 257 265
106 108 112 116 116 115 115 117 128 125 133 110 63 56 68 28 284 167 16 39 28 13 44 88 131 115 125 139 105 121 34 94 130 156 126 210 257 258 236 279 287 302 289 249 186 111 352 295 286 298 291 288 285 286
99 98 99 102 105 110 111 124 125 118 68 50 67 72 92 232 78 37 63 65 25 69 45 90 98 121 90 112 105 102 123 137 172 187 209 228 265 250 204 230 283 294 351 32 20 343 333 323 317 313 310 310 304 291
94 94 97 99 102 104 93 83 60 47 37 123 105 106 84 41 53 77 46 125 56 125 118 110 108 103 101 114 110 164 115 181 198 139 207 250 245 194 239 267 248 295 323 332 338 337 358 1 4 345 336 330 340 345
112 110 111 114 115 115 112 117 124 126 117 53 57 66 56 342 61 116 151 78 95 137 144 136 119 117 126 61 70 169 109 176 132 213 239 245 292 276 268 270 268 265 282 300 307 311 324 327 338 338 329 336 326 317
82 82 85 88 83 79 79 82 94 59 65 65 71 51 79 358 76 120 106 123 133 123 126 116 85 77 76 79 126 147 146 141 175 221 227 267 243 238 237 264 281 280 282 294 287 321 2 1 350 337 321 312 296 297
69 64 63 62 67 70 73 72 73 56 71 75 69 62 46 117 62 94 111 97 70 107 93 80 68 88 78 103 303 112 148 219 218 234 201 251 278 297 304 331 356 353 343 351 25 25 13 357 341 320 316 330 342 320
67 57 37 50 53 50 55 67 50 87 67 60 52 84 140 92 64 68 88 81 50 86 77 59 109 83 79 122 149 215 179 217 218 203 275 351 6 18 13 4 21 24 24 20 19 7 5 5 355 356 17 18 3 22
66 54 20 53 54 44 37 67 41 48 74 70 52 22 100 85 96 92 93 89 79 73 107 100 104 154 122 169 196 193 208 199 193 90 32 1 357 10 21 31 33 32 26 12 3 3 359 350 344 352 350 354 342 341
65 6 42 38 40 36 34 38 73 67 59 36 75 308 75 91 108 67 80 75 83 113 148 168 126 164 166 175 204 203 175 138 178 121 28 31 32 34 45 40 25 27 16 6 358 356 354 347 345 346 350 354 347 355
63 40 35 37 62 84 65 34 47 80 53 51 54 39 54 70 42 74 93 77 70 89 122 124 120 174 187 187 146 144 164 165 124 99 67 54 50 54 41 42 28 17 5 5 6 359 356 6 4 358 354 348 339 332
50 37 32 37 47 74 71 39 50 89 105 138 68 55 60 67 75 72 83 76 86 107 135 176 180 184 160 172 173 135 128 132 124 102 77 53 43 76 52 36 25 9 20 15 10 7 355 353 357 350 344 335 330 324
32 354 18 38 42 56 79 45 51 71 100 64 98 84 85 86 117 147 160 166 88 203 199 204 198 150 128 107 112 113 109 115 105 99 110 106 80 74 63 52 39 30 15 5 356 -0 359 346 338 338 333 328 323 315
352 14 46 25 64 54 69 13 101 121 79 115 135 148 128 143 162 190 156 190 214 210 188 167 167 146 137 128 113 98 113 106 100 96 95 123 103 76 60 37 21 16 22 17 357 345 339 341 341 332 328 323 318 317
26 40 46 44 74 56 233 129 102 75 115 157 157 131 142 140 169 151 194 210 230 164 145 123 134 119 116 108 106 98 116 124 114 121 118 110 103 99 91 61 41 34 0 357 350 344 338 335 331 328 324 324 325 322
29 52 54 53 67 122 23 34 83 98 90 123 115 111 131 141 172 154 224 231 182 155 151 136 129 107 98 104 104 125 125 113 116 113 127 137 130 111 80 79 57 39 7 343 340 338 333 329 327 331 329 326 330 328
70 345 71 15 5 72 59 33 13 67 100 158 92 100 170 144 117 180 232 248 172 177 157 145 135 128 127 119 129 129 137 141 138 135 129 128 120 126 118 49 23 355 356 335 337 332 328 327 333 332 332 334 333 334
70 306 82 160 297 103 164 98 139 152 120 96 113 78 63 94 106 239 229 190 180 166 173 169 150 134 132 147 151 158 160 136 126 123 139 147 141 134 145 317 330 329 8 340 318 322 327 331 332 332 333 339 337 337
79 333 57 24 71 98 62 55 107 101 125 156 170 128 102 147 236 250 267 211 164 183 157 154 151 142 145 141 111 105 112 115 117 127 122 119 109 104 132 187 257 289 321 322 312 305 314 321 324 331 333 337 348 349
134 82 130 270 51 41 118 81 131 175 188 171 109 161 171 193 235 234 193 108 103 100 92 78 73 105 117 123 121 117 94 97 90 88 86 76 65 104 142 201 267 303 304 304 299 302 296 307 323 332 339 342 342 354
62 357 86 33 19 39 183 162 200 227 158 137 153 190 229 225 224 156 154 139 126 119 117 116 73 90 85 82 75 95 135 142 131 137 188 245 302 225 181 235 283 310 334 320 317 316 332 10 1 359 348 346 342 345
282 149 88 62 108 231 258 159 215 290 33 126 135 78 355 303 84 134 132 147 157 161 141 134 141 140 147 149 142 132 216 185 145 146 174 213 218 170 166 203 234 306 319 314 334 337 4 30 14 17 14 18 14 12
48 73 68 89 211 255 272 302 286 96 42 60 14 153 203 309 305 162 183 126 115 122 124 134 136 143 148 151 160 159 190 203 205 199 148 129 143 166 173 186 197 224 281 338 4 25 21 39 27 11 19 20 13 13
33 119 122 58 302 341 5 26 26 29 358 1 352 355 16 153 253 38 67 130 137 153 150 151 158 185 185 149 136 131 141 145 164 171 165 163 171 171 159 156 152 162 118 78 50 62 50 45 32 26 17 15 9 7
95 58 52 50 19 16 347 49 31 351 20 28 18 1 328 256 254 17 7 7 208 177 169 173 147 132 159 160 166 160 154 142 140 152 158 157 152 150 148 150 149 141 118 104 86 74 72 81 44 37 31 18 9 6